EW7682 Weather Reports


Display with metric or nautical units.
time (UTC)temp
F
wind
direction
speed
MPH
gust
MPH
rain 1hr
in
rain 24hr
in
rain mn
in
humidity
%
barometer
mb
20190421164538 56 126 3.0 8.0 0.00 0.04 0.04 91 1014.8
20190421163115 56 250 4.0 15.0 0.00 0.04 0.04 90 1014.7
20190421161554 58 143 4.0 14.0 0.00 0.04 0.04 89 1014.7
20190421160055 59 176 5.0 13.0 0.00 0.04 0.04 87 1014.5
20190421154550 60 151 4.0 11.0 0.00 0.05 0.04 88 1014.4
20190421153037 59 186 3.0 8.0 0.00 0.05 0.04 89 1014.4
20190421151522 59 141 2.0 9.0 0.00 0.05 0.04 90 1014.6
20190421150025 59 139 2.0 6.0 0.00 0.05 0.04 90 1014.3
20190421144515 58 167 3.0 9.0 0.00 0.27 0.04 91 1014.0
20190421143024 59 119 3.0 10.0 0.00 0.27 0.04 91 1013.9
20190421141537 58 153 3.0 8.0 0.00 0.27 0.04 91 1013.7
20190421140022 57 186 3.0 9.0 0.00 0.27 0.04 92 1013.7
20190421134505 57 144 2.0 5.0 0.01 0.28 0.04 93 1013.6
20190421133003 56 158 0.0 5.0 0.01 0.28 0.04 93 1013.6
20190421131501 56 158 2.0 12.0 0.01 0.28 0.04 93 1013.5
20190421130340 56 231 2.0 8.0 0.01 0.28 0.04 93 1013.7
20190421130003 56 201 2.0 8.0 0.01 0.28 0.04 93 1013.7
20190421124655 56 147 3.0 7.0 0.00 0.28 0.03 93 1013.6
20190421123206 56 162 3.0 7.0 0.00 0.28 0.03 95 1013.2
20190421121635 55 96 0.0 4.0 0.00 0.28 0.03 95 1012.7
20190421120210 54 106 1.0 4.0 0.00 0.28 0.03 95 1012.4
20190421114831 53 122 0.0 5.0 0.01 0.67 0.03 95 1012.4
20190421113214 53 143 0.0 4.0 0.02 0.67 0.03 95 1012.5
20190421111658 53 104 0.0 3.0 0.02 0.67 0.03 94 1012.2
20190421110141 53 146 0.0 5.0 0.03 0.67 0.03 94 1012.3
20190421104819 53 121 0.0 5.0 0.02 0.71 0.02 94 1012.6
20190421103212 53 147 0.0 3.0 0.01 0.70 0.01 93 1012.3
20190421101640 53 145 0.0 2.0 0.01 0.70 0.01 93 1012.0
20190421100137 53 246 0.0 4.0 0.00 0.69 0.00 92 1012.0
20190421094626 53 128 0.0 3.0 0.00 0.71 0.00 91 1012.0
20190421093221 54 247 0.0 4.0 0.00 0.71 0.00 90 1012.2
20190421091631 54 157 0.0 2.0 0.00 0.71 0.00 90 1011.5
20190421090056 54 257 0.0 3.0 0.00 0.71 0.00 90 1011.1
20190421084627 54 145 0.0 4.0 0.00 0.72 0.00 90 1010.9
20190421083108 54 124 0.0 3.0 0.00 0.72 0.00 90 1010.5
20190421081607 54 81 0.0 4.0 0.00 0.72 0.00 90 1010.7
20190421080142 54 132 0.0 3.0 0.00 0.72 0.00 91 1010.5
20190421074705 53 136 0.0 4.0 0.00 0.74 0.00 91 1010.6
20190421073152 53 136 0.0 3.0 0.00 0.74 0.00 92 1010.4
20190421071615 53 159 0.0 2.0 0.00 0.74 0.00 92 1010.6
20190421070049 53 156 0.0 0.0 0.00 0.74 0.00 91 1010.6
20190421064608 54 152 0.0 0.0 0.00 0.76 0.00 90 1010.4
20190421063105 54 178 0.0 0.0 0.00 0.76 0.00 90 1010.3
20190421061610 54 211 0.0 0.0 0.00 0.76 0.00 90 1010.5
20190421060055 54 202 0.0 3.0 0.00 0.76 0.00 90 1010.5
20190421054532 54 140 0.0 4.0 0.00 0.79 0.00 90 1010.7
20190421053041 55 255 0.0 5.0 0.00 0.79 0.00 90 1010.6
20190421051544 55 174 0.0 4.0 0.00 0.79 0.00 90 1010.6
20190421050026 55 150 2.0 8.0 0.00 0.79 0.00 90 1010.5
20190421044539 55 226 1.0 4.0 0.00 0.79 0.00 91 1010.5
20190421043023 55 228 0.0 5.0 0.00 0.79 0.00 91 1010.1
20190421041527 55 155 1.0 6.0 0.00 0.79 0.00 91 1010.2
20190421040016 56 170 1.0 9.0 0.00 0.79 0.00 90 1010.2
20190421034508 56 146 2.0 13.0 0.00 0.79 0.79 90 1010.0
20190421033010 56 148 2.0 9.0 0.00 0.79 0.79 90 1010.0
20190421031512 56 131 1.0 9.0 0.00 0.79 0.79 89 1010.0
20190421030011 57 137 2.0 8.0 0.00 0.79 0.79 88 1010.0
20190421024506 57 240 3.0 11.0 0.00 0.79 0.79 87 1009.9
20190421023026 58 143 3.0 10.0 0.00 0.79 0.79 86 1009.9
20190421021518 58 243 4.0 9.0 0.00 0.79 0.79 86 1009.9
20190421020002 58 172 3.0 11.0 0.00 0.79 0.79 86 1009.9
20190421014651 57 250 4.0 13.0 0.00 0.79 0.79 87 1009.8
20190421013207 57 117 4.0 12.0 0.00 0.79 0.79 88 1009.4
20190421011705 57 250 7.0 13.0 0.00 0.79 0.79 88 1009.2
20190421010118 56 146 5.0 12.0 0.00 0.79 0.79 88 1009.0
20190421004703 56 254 2.0 12.0 0.00 0.79 0.79 88 1009.1
20190421003214 55 130 3.0 11.0 0.00 0.79 0.79 90 1009.2
20190421001653 55 171 3.0 13.0 0.00 0.79 0.79 89 1009.3
20190421000133 56 143 5.0 9.0 0.00 0.79 0.79 85 1009.2
20190420234657 56 158 4.0 11.0 0.00 0.79 0.79 83 1009.2
20190420233216 56 135 5.0 15.0 0.00 0.79 0.79 82 1009.1
20190420231644 56 84 4.0 14.0 0.00 0.79 0.79 86 1008.8
20190420230055 57 266 2.0 10.0 0.00 0.79 0.79 87 1008.4
20190420224600 57 244 3.0 12.0 0.00 0.79 0.79 87 1008.4
20190420223051 58 274 3.0 12.0 0.00 0.79 0.79 87 1008.1
20190420221550 58 165 5.0 12.0 0.00 0.79 0.79 86 1008.3
20190420220057 59 136 5.0 16.0 0.00 0.79 0.79 86 1008.1
20190420214538 59 135 4.0 14.0 0.00 0.79 0.79 85 1008.0
20190420213051 59 265 5.0 12.0 0.00 0.79 0.79 86 1007.5
20190420211534 59 237 4.0 16.0 0.00 0.79 0.79 88 1007.3
20190420210100 59 150 5.0 16.0 0.00 0.79 0.79 90 1007.3
20190420204542 59 313 4.0 16.0 0.00 0.79 0.79 90 1007.5
20190420203028 59 148 5.0 13.0 0.00 0.79 0.79 91 1007.2
20190420201542 59 266 3.0 12.0 0.00 0.79 0.79 91 1006.9
20190420200026 59 238 3.0 17.0 0.00 0.79 0.79 92 1006.6
20190420194539 59 127 6.0 15.0 0.00 0.79 0.79 92 1006.5
20190420193022 60 283 5.0 13.0 0.00 0.79 0.79 92 1006.6
20190420191540 60 216 7.0 15.0 0.00 0.79 0.79 92 1006.8
20190420190027 61 239 7.0 16.0 0.00 0.79 0.79 92 1006.7
20190420184534 61 259 6.0 22.0 0.00 0.79 0.79 92 1007.1
20190420183028 61 129 7.0 23.0 0.00 0.79 0.79 94 1006.6
20190420181517 61 271 6.0 17.0 0.00 0.79 0.79 94 1006.9
20190420180031 61 146 6.0 17.0 0.00 0.79 0.79 94 1006.5
20190420174517 61 209 6.0 16.0 0.00 0.79 0.79 94 1006.5
20190420173016 62 224 7.0 17.0 0.00 0.79 0.79 95 1006.5
20190420171509 62 201 4.0 14.0 0.00 0.79 0.79 95 1006.2